1281052826092,90.9073
1281052886092,90.8997
1281052946092,90.4037
1281053006092,90.5949
1281053066092,91.0514
1281053126092,90.6258
1281053186092,90.2892
1281053246092,91.0104
1281053306092,91.0396
1281053366092,90.3073
1281053426092,90.3194
1281053486092,90.5138
1281053546092,90.2618
1281053606092,90.4706
1281053666092,90.1513
1281053726092,90.0602
1281053786092,90.3673
1281053846092,90.3847
1281053906092,90.2611
1281053966092,90.4686
1281054026092,90.1657
1281054086092,90.2143
1281054146092,90.4545
1281054206092,90.4540
1281054266092,90.1874
1281054326092,90.1993
1281054386092,90.2329
1281054446092,89.9864
1281054506092,90.2869
1281054566092,90.6406
1281054626092,90.3724
1281054686092,90.3015
1281054746092,90.5462
1281054806092,90.1749
1281054866092,90.0272
1281054926092,89.9916
1281054986092,89.7737
1281055046092,90.5818
1281055106092,89.9274
1281055166092,90.5095
1281055226092,90.1853
1281055286092,90.0553
1281055346092,90.4319
1281055406092,90.1375
1281055466092,90.3427
1281055526092,90.6902
1281055586092,90.1403
1281055646092,90.3895
1281055706092,90.4402
1281055766092,90.7471
1281055826092,90.0504
1281055886092,90.1550
1281055946092,90.2479
1281056006092,90.2015
1281056066092,90.3651
1281056126092,90.3153
1281056186092,90.0996
1281056246092,89.9956
1281056306092,90.3473
1281056366092,90.3882
1281056426101,90.1738
1281056486101,90.6055
1281056546101,90.4746
1281056606101,90.0087
1281056666101,90.5642
1281056726101,90.2725
1281056786101,89.8603
1281056846101,89.9785
1281056906101,90.2189
1281056966101,90.8607
1281057026101,90.7784
1281057086101,90.3312
1281057146101,90.4757
1281057206101,90.4896
1281057266101,90.6054
1281057326101,90.2930
1281057386101,90.7921
1281057446101,90.3691
1281057506101,90.3621
1281057566101,90.8409
1281057626101,90.4746
1281057686101,90.4203
1281057746101,90.7935
1281057806101,89.9533
1281057866101,90.6960
1281057926101,90.6688
1281057986101,90.2950
1281058046101,90.8045
1281058106101,90.9140
1281058166101,90.6429
1281058226101,90.8532
1281058286101,90.8650
1281058346101,90.7915
1281058406101,90.5503
1281058466101,90.6413
1281058526101,90.4478
1281058586101,90.9759
1281058646101,90.2892
1281058706101,90.5731
1281058766101,91.1304
1281058826101,90.7482
1281058886101,90.2816
1281058946101,90.7580
1281059006101,90.6587
1281059066101,90.6206
1281059126101,90.3296
1281059186101,90.6846
1281059246101,90.2548
1281059306101,90.8252
1281059366101,90.5997
1281059426101,89.7587
1281059486101,90.7141
1281059546101,90.3098
1281059606101,90.3831
1281059666101,90.7627
1281059726101,90.7524
1281059786101,90.9615
1281059846101,90.6392
1281059906101,90.6237
1281059966101,90.5542
1281060026109,90.5726
1281060086109,90.2924
1281060146109,90.3912
1281060206109,90.4420
1281060266109,90.4244
1281060326109,90.8940
1281060386109,90.6574
1281060446109,90.5643
1281060506109,90.8014
1281060566109,90.4861
1281060626109,90.5642
1281060686109,90.5688
1281060746109,90.7946
1281060806109,90.6338
1281060866109,90.6901
1281060926109,90.5943
1281060986109,90.9040
1281061046109,90.2014
1281061106109,90.2927
1281061166109,90.0607
1281061226109,90.7477
1281061286109,90.8693
1281061346109,90.6219
1281061406109,90.4497
1281061466109,90.5090
1281061526109,90.8774
1281061586109,90.3774
1281061646109,90.5521
1281061706109,90.5390
1281061766109,90.4044
1281061826109,90.1541
1281061886109,90.7046
1281061946109,90.0032
1281062006109,90.6563
1281062066109,90.2134
1281062126109,90.5939
1281062186109,90.2562
1281062246109,90.5599
1281062306109,90.3254
1281062366109,90.4181
1281062426109,89.8355
1281062486109,90.4899
1281062546109,90.2183
1281062606109,90.1997
1281062666109,90.3744
1281062726109,90.8474
1281062786109,90.3204
1281062846109,89.9269
1281062906109,90.6681
1281062966109,90.5072
1281063026109,89.8094
1281063086109,90.2663
1281063146109,90.6964
1281063206109,90.6218
1281063266109,90.6195
1281063326109,90.1483
1281063386109,90.0869
1281063446109,90.2968
1281063506109,90.6042
1281063566109,90.3512
1281063626118,90.0197
1281063686118,90.5324
1281063746118,90.2260
1281063806118,89.9908
1281063866118,90.4291
1281063926118,90.3209
1281063986118,90.1486
1281064046118,90.3346
1281064106118,90.6203
1281064166118,90.0248
1281064226118,89.9977
1281064286118,90.3677
1281064346118,90.2058
1281064406118,90.2331
1281064466118,90.1082
1281064526118,89.6999
1281064586118,90.5435
1281064646118,89.9904
1281064706118,90.4049
1281064766118,90.4804
1281064826118,90.3881
1281064886118,90.4456
1281064946118,90.2593
1281065006118,90.2037
1281065066118,90.9251
1281065126118,90.4583
1281065186118,90.3012
1281065246118,90.5892
1281065306118,90.4697
1281065366118,90.3205
1281065426118,90.7425
1281065486118,90.4606
1281065546118,90.2964
1281065606118,90.5709
1281065666118,90.3014
1281065726118,90.2943
1281065786118,90.1723
1281065846118,90.0130
1281065906118,90.7664
1281065966118,90.1592
1281066026118,90.0469
1281066086118,90.6297
1281066146118,90.4856
1281066206118,90.0424
1281066266118,90.4755
1281066326118,90.5054
1281066386118,89.7649
1281066446118,90.1978
1281066506118,90.5569
1281066566118,90.3929
1281066626118,90.4691
1281066686118,90.1665
1281066746118,90.6342
1281066806118,90.6604
1281066866118,90.2714
1281066926118,90.2840
1281066986118,90.2509
1281067046118,90.2926
1281067106118,90.2724
1281067166118,90.5403
1281067226126,90.7671
1281067286126,90.3596
1281067346126,90.7090
1281067406126,90.1818
1281067466126,89.9934
1281067526126,90.9650
1281067586126,90.9221
1281067646126,91.0004
1281067706126,90.9498
1281067766126,90.3945
1281067826126,90.5038
1281067886126,90.5443
1281067946126,90.7155
1281068006126,90.5615
1281068066126,90.7235
1281068126126,90.4540
1281068186126,90.4001
1281068246126,90.4861
1281068306126,90.4166
1281068366126,90.3763
1281068426126,90.7512
1281068486126,90.9199
1281068546126,90.1332
1281068606126,90.4369
1281068666126,90.9789
1281068726126,90.8764
1281068786126,90.5229
1281068846126,90.6592
1281068906126,90.4448
1281068966126,90.9429
1281069026126,90.9263
1281069086126,90.5837
1281069146126,90.9128
1281069206126,90.4675
1281069266126,90.9295
1281069326126,90.5893
1281069386126,90.4684
1281069446126,90.6185
1281069506126,90.2338
1281069566126,90.4792
1281069626126,90.4501
1281069686126,90.7636
1281069746126,90.8725
1281069806126,91.1776
1281069866126,90.6220
1281069926126,90.7263
1281069986126,90.6113
1281070046126,90.6596
1281070106126,90.6675
1281070166126,91.1834
1281070226126,90.4021
1281070286126,90.3789
1281070346126,90.3437
1281070406126,90.5402
1281070466126,91.3149
1281070526126,90.5006
1281070586126,90.8042
1281070646126,90.5683
1281070706126,91.0152
1281070766126,90.6496
1281070826134,90.7445
1281070886134,90.8234
1281070946134,90.7544
1281071006134,90.1779
1281071066134,91.1469
1281071126134,91.0177
1281071186134,90.5186
1281071246134,91.2311
1281071306134,91.5360
1281071366134,90.6644
1281071426134,90.9833
1281071486134,91.0810
1281071546134,90.8570
1281071606134,90.9112
1281071666134,90.9103
1281071726134,90.9622
1281071786134,91.6475
1281071846134,90.9515
1281071906134,91.2697
1281071966134,90.8077
1281072026134,91.2537
1281072086134,91.2825
1281072146134,91.2517
1281072206134,91.3489
1281072266134,91.2660
1281072326134,91.3927
1281072386134,91.4434
1281072446134,91.3171
1281072506134,91.2339
1281072566134,90.9257
1281072626134,91.0343
1281072686134,91.6664
1281072746134,91.4716
1281072806134,91.4763
1281072866134,91.2625
1281072926134,90.9270
1281072986134,90.9424
1281073046134,91.4131
1281073106134,90.9380
1281073166134,91.6098
1281073226134,91.5612
1281073286134,91.3389
1281073346134,91.3815
1281073406134,90.8559
1281073466134,91.4547
1281073526134,90.9432
1281073586134,91.3069
1281073646134,91.7136
1281073706134,91.0645
1281073766134,91.2737
1281073826134,90.7062
1281073886134,91.3735
1281073946134,91.0042
1281074006134,91.3299
1281074066134,91.7620
1281074126134,91.0668
1281074186134,91.4595
1281074246134,91.4002
1281074306134,91.5702
1281074366134,91.3709
1281074426142,91.5709
1281074486142,91.1476
1281074546142,91.4179
1281074606142,91.4940
1281074666142,90.8488
1281074726142,91.0222
1281074786142,91.3715
1281074846142,90.7857
1281074906142,91.2719
1281074966142,91.3077
1281075026142,91.1212
1281075086142,91.3651
1281075146142,91.0782
1281075206142,91.4825
1281075266142,91.4979
1281075326142,91.4878
1281075386142,91.5834
1281075446142,91.6370
1281075506142,90.8667
1281075566142,91.4081
1281075626142,90.7749
1281075686142,91.5765
1281075746142,90.5403
1281075806142,91.2470
1281075866142,91.2021
1281075926142,91.0259
1281075986142,91.3001
1281076046142,90.7258
1281076106142,91.1378
1281076166142,90.5868
1281076226142,90.9477
1281076286142,91.1258
1281076346142,91.1237
1281076406142,90.5149
1281076466142,90.9961
1281076526142,90.9293
1281076586142,91.1361
1281076646142,90.7072
1281076706142,91.1769
1281076766142,90.5437
1281076826142,91.0085
1281076886142,90.2845
1281076946142,91.0705
1281077006142,90.9005
1281077066142,90.9969
1281077126142,90.8538
1281077186142,90.7045
1281077246142,90.9098
1281077306142,90.6275
1281077366142,91.1970
1281077426142,90.4696
1281077486142,90.9475
1281077546142,90.6089
1281077606142,90.7481
1281077666142,90.5974
1281077726142,90.7506
1281077786142,90.8258
1281077846142,90.5196
1281077906142,90.5625
1281077966142,91.0304
1281078026150,90.7358
1281078086150,90.9922
1281078146150,90.9998
1281078206150,90.5921
1281078266150,91.0471
1281078326150,91.2353
1281078386150,91.0628
1281078446150,91.3143
1281078506150,90.8459
1281078566150,90.8073
1281078626150,91.0239
1281078686150,90.7458
1281078746150,90.8812
1281078806150,91.0564
1281078866150,90.8216
1281078926150,90.8402
1281078986150,90.5762
1281079046150,90.6458
1281079106150,91.0647
1281079166150,91.2236
1281079226150,91.0977
1281079286150,90.8402
1281079346150,90.8713
1281079406150,91.1240
1281079466150,90.7511
1281079526150,90.6625
1281079586150,90.6689
1281079646150,91.2288
1281079706150,91.0741
1281079766150,91.0983
1281079826150,90.8923
1281079886150,91.0543
1281079946150,90.3359
1281080006150,90.7755
1281080066150,91.1977
1281080126150,90.8870
1281080186150,90.6288
1281080246150,91.1709
1281080306150,91.1540
1281080366150,90.9903
1281080426150,91.1562
1281080486150,91.4170
1281080546150,90.7162
1281080606150,90.7670
1281080666150,91.2584
1281080726150,90.7358
1281080786150,90.4772
1281080846150,90.6710
1281080906150,90.6720
1281080966150,91.1685
1281081026150,91.2933
1281081086150,90.7672
1281081146150,91.0629
1281081206150,90.7543
1281081266150,90.7315
1281081326150,90.6726
1281081386150,91.0860
1281081446150,91.2766
1281081506150,90.9223
1281081566150,90.9076
1281081626158,90.9970
1281081686158,91.5871
1281081746158,91.0215
1281081806158,90.8157
1281081866158,90.7855
1281081926158,90.9327
1281081986158,90.8685
1281082046158,91.0281
1281082106158,91.3055
1281082166158,91.3071
1281082226158,91.4859
1281082286158,90.6427
1281082346158,91.1007
1281082406158,90.5579
1281082466158,91.1914
1281082526158,90.9041
1281082586158,90.8520
1281082646158,91.0888
1281082706158,91.1289
1281082766158,91.1906
1281082826158,91.4676
1281082886158,90.8772
1281082946158,91.0912
1281083006158,91.2335
1281083066158,91.2828
1281083126158,91.3274
1281083186158,90.8051
1281083246158,91.1819
1281083306158,90.9141
1281083366158,90.8615
1281083426158,90.9683
1281083486158,90.8935
1281083546158,91.0496
1281083606158,90.8968
1281083666158,90.8680
1281083726158,90.7452
1281083786158,90.3814
1281083846158,90.5171
1281083906158,91.4268
1281083966158,90.9693
1281084026158,91.1068
1281084086158,90.9383
1281084146158,90.3206
1281084206158,90.8280
1281084266158,91.4406
1281084326158,90.7555
1281084386158,91.1558
1281084446158,90.7926
1281084506158,91.1607
1281084566158,91.1188
1281084626158,90.7993
1281084686158,90.7659
1281084746158,91.1152
1281084806158,91.0988
1281084866158,90.7758
1281084926158,90.9200
1281084986158,91.1158
1281085046158,90.9555
1281085106158,91.0124
1281085166158,90.9858
1281085226166,90.9592
1281085286166,91.0022
1281085346166,90.7547
1281085406166,90.6242
1281085466166,90.6160
1281085526166,91.0465
1281085586166,90.8503
1281085646166,90.6879
1281085706166,91.0506
1281085766166,90.6796
1281085826166,90.5164
1281085886166,91.2981
1281085946166,91.0115
1281086006166,90.6884
1281086066166,90.9926
1281086126166,90.4525
1281086186166,90.5599
1281086246166,91.8756
1281086306166,90.7545
1281086366166,90.8105
1281086426166,90.9511
1281086486166,90.7605
1281086546166,91.0715
1281086606166,90.7406
1281086666166,90.8428
1281086726166,90.7427
1281086786166,90.9488
1281086846166,91.3975
1281086906166,91.0541
1281086966166,91.0955
1281087026166,90.9850
1281087086166,90.9018
1281087146166,90.8087
1281087206166,90.7943
1281087266166,90.6846
1281087326166,91.4015
1281087386166,91.2767
1281087446166,91.1605
1281087506166,91.0253
1281087566166,91.0992
1281087626166,90.9501
1281087686166,90.7198
1281087746166,90.8082
1281087806166,90.9047
1281087866166,90.8136
1281087926166,90.6725
1281087986166,91.2061
1281088046166,90.7206
1281088106166,90.9618
1281088166166,90.9433
1281088226166,90.9598
1281088286166,90.9976
1281088346166,91.0532
1281088406166,90.8797
1281088466166,90.9746
1281088526166,90.9399
1281088586166,91.1918
1281088646166,91.3495
1281088706166,91.0141
1281088766166,91.2474
1281088826174,90.9113
1281088886174,90.4946
1281088946174,91.1422
1281089006174,90.8621
1281089066174,90.9235
1281089126174,90.8753
1281089186174,91.1997
1281089246174,90.9620
1281089306174,91.0727
1281089366174,91.0473
1281089426174,90.9282
1281089486174,91.1032
1281089546174,91.0683
1281089606174,91.0837
1281089666174,91.1459
1281089726174,90.8990
1281089786174,91.1048
1281089846174,90.6563
1281089906174,91.1615
1281089966174,90.9585
1281090026174,91.4812
1281090086174,91.0388
1281090146174,91.0300
1281090206174,91.6163
1281090266174,91.0180
1281090326174,90.7949
1281090386174,91.5845
1281090446174,91.5383
1281090506174,91.3534
1281090566174,91.2053
1281090626174,91.0554
1281090686174,91.0683
1281090746174,91.2885
1281090806174,91.6459
1281090866174,91.7868
1281090926174,91.5489
1281090986174,91.6031
1281091046174,91.3709
1281091106174,91.3259
1281091166174,91.0564
1281091226174,91.6776
1281091286174,91.2061
1281091346174,91.2303
1281091406174,91.5005
1281091466174,91.5097
1281091526174,91.5799
1281091586174,91.1258
1281091646174,91.3260
1281091706174,91.3176
1281091766174,91.1013
1281091826174,91.6084
1281091886174,91.2650
1281091946174,91.5764
1281092006174,91.5793
1281092066174,91.5254
1281092126174,91.5221
1281092186174,91.6999
1281092246174,91.3793
1281092306174,91.8813
1281092366174,91.2435
1281092426182,92.1653
1281092486182,91.5385
1281092546182,91.5859
1281092606182,92.4362
1281092666182,91.8417
1281092726182,91.5806
1281092786182,91.8715
1281092846182,92.0243
1281092906182,91.6382
1281092966182,91.8335
1281093026182,92.0885
1281093086182,91.6779
1281093146182,91.7326
1281093206182,91.8612
1281093266182,91.7817
1281093326182,91.7784
1281093386182,91.9367
1281093446182,91.4733
1281093506182,91.5114
1281093566182,91.7843
1281093626182,92.3586
1281093686182,91.7116
1281093746182,91.7322
1281093806182,91.9065
1281093866182,91.9079
1281093926182,91.6096
1281093986182,91.8534
1281094046182,92.0571
1281094106182,91.8169
1281094166182,92.0214
1281094226182,92.0063
1281094286182,91.9254
1281094346182,92.0619
1281094406182,92.0413
1281094466182,91.9029
1281094526182,91.6439
1281094586182,92.1297
1281094646182,91.7741
1281094706182,92.1784
1281094766182,92.3251
1281094826182,91.9820
1281094886182,91.5461
1281094946182,91.3841
1281095006182,92.4832
1281095066182,92.2441
1281095126182,92.3083
1281095186182,92.0200
1281095246182,91.7746
1281095306182,92.1420
1281095366182,91.9797
1281095426182,91.8520
1281095486182,92.0879
1281095546182,91.8839
1281095606182,91.9416
1281095666182,92.1418
1281095726182,91.7586
1281095786182,92.4205
1281095846182,92.0838
1281095906182,91.7628
1281095966182,91.9988
1281096026191,92.2358
1281096086191,92.3724
1281096146191,92.0211
1281096206191,91.7907
1281096266191,91.9655
1281096326191,92.1690
1281096386191,92.2885
1281096446191,92.0338
1281096506191,92.1889
1281096566191,92.1922
1281096626191,92.2989
1281096686191,92.1963
1281096746191,91.9692
1281096806191,92.2929
1281096866191,91.8792
1281096926191,92.5308
1281096986191,92.0462
1281097046191,92.0407
1281097106191,92.7702
1281097166191,92.4858
1281097226191,91.9226
1281097286191,92.1904
1281097346191,92.5092
1281097406191,92.7234
1281097466191,92.4340
1281097526191,92.2357
1281097586191,92.2511
1281097646191,92.3799
1281097706191,91.9985
1281097766191,92.1773
1281097826191,92.3954
1281097886191,92.4890
1281097946191,92.2147
1281098006191,92.5776
1281098066191,92.7141
1281098126191,92.6634
1281098186190,92.7836
1281098246191,92.3049
1281098306191,92.6931
1281098366191,92.8478
1281098426191,92.3224
1281098486191,92.7135
1281098546191,92.4478
1281098606191,93.2135
1281098666191,92.8441
1281098726191,93.0254
1281098786191,93.0003
1281098846191,92.8840
1281098906191,92.5768
1281098966191,92.5030
1281099026191,92.8082
1281099086191,92.9834
1281099146191,93.3213
1281099206191,92.8767
1281099266191,92.4852
1281099326191,93.3782
1281099386191,92.6670
1281099446191,93.2478
1281099506191,93.3062
1281099566191,93.8056
1281099626199,92.7912
1281099686199,93.6305
1281099746199,93.4412
1281099806199,93.4529
1281099866199,93.2559
1281099926199,93.0374
1281099986199,93.3519
1281100046199,93.7490
1281100106199,93.0446
1281100166199,93.3440
1281100226199,93.5982
1281100286199,93.7538
1281100346199,93.1718
1281100406199,93.0230
1281100466199,93.2978
1281100526199,93.3588
1281100586199,93.5195
1281100646199,93.5103
1281100706199,93.1722
1281100766199,93.1824
1281100826199,93.4552
1281100886199,93.3703
1281100946199,93.1345
1281101006199,93.6181
1281101066199,93.1366
1281101126199,93.7323
1281101186199,93.9877
1281101246199,93.4312
1281101306199,93.3573
1281101366199,93.8988
1281101426199,93.7094
1281101486199,93.5542
1281101546199,93.4837
1281101606199,93.6051
1281101666199,93.4694
1281101726199,93.6526
1281101786199,93.6282
1281101846199,93.1239
1281101906199,93.1535
1281101966199,93.7692
1281102026199,93.6404
1281102086199,94.1906
1281102146199,93.5138
1281102206199,93.5395
1281102266199,93.7569
1281102326199,93.7671
1281102386199,93.8822
1281102446199,94.3026
1281102506199,94.1794
1281102566199,93.4916
1281102626199,93.7230
1281102686199,93.9570
1281102746199,93.5976
1281102806199,93.3658
1281102866199,93.3595
1281102926199,93.9032
1281102986199,93.4405
1281103046199,93.9532
1281103106199,94.1374
1281103166199,93.8019
1281103226207,93.5329
1281103286207,93.4660
1281103346207,93.8979
1281103406207,93.9482
1281103466207,93.3627
1281103526207,93.9105
1281103586207,93.8647
1281103646207,93.9636
1281103706207,93.3592
1281103766207,93.6307
1281103826207,94.0189
1281103886207,93.7049
1281103946207,93.5274
1281104006207,93.5278
1281104066207,93.4502
1281104126207,94.1511
1281104186207,93.7176
1281104246207,93.5269
1281104306207,93.5305
1281104366207,93.6162
1281104426207,93.2506
1281104486207,93.9707
1281104546207,93.9584
1281104606207,93.8730
1281104666207,93.8953
1281104726207,93.6341
1281104786207,93.7050
1281104846207,93.6215
1281104906207,93.5897
1281104966207,93.6570
1281105026207,93.4282
1281105086207,93.3333
1281105146207,93.7314
1281105206207,93.0525
1281105266207,93.9538
1281105326207,93.5210
1281105386207,93.5026
1281105446207,93.8446
1281105506207,93.8737
1281105566207,94.0778
1281105626207,93.4357
1281105686207,93.7869
1281105746207,93.8756
1281105806207,93.6329
1281105866207,93.3925
1281105926207,93.2747
1281105986207,93.7485
1281106046207,93.9444
1281106106207,93.5921
1281106166207,93.4873
1281106226207,93.5885
1281106286207,94.0056
1281106346207,93.5150
1281106406207,93.3664
1281106466207,93.2111
1281106526207,93.6101
1281106586207,93.8543
1281106646207,93.3244
1281106706207,93.5499
1281106766207,93.4721
1281106826216,93.6762
1281106886216,94.1401
1281106946216,93.4553
1281107006216,93.1176
1281107066216,93.3304
1281107126216,93.2658
1281107186216,93.5046
1281107246216,93.7212
1281107306216,93.7219
1281107366216,93.6164
1281107426216,93.8040
1281107486216,93.6595
1281107546216,93.8778
1281107606216,93.4436
1281107666216,93.7942
1281107726216,93.8085
1281107786216,93.8714
1281107846216,93.8235
1281107906216,93.5939
1281107966216,93.8422
1281108026216,93.4256
1281108086216,93.7018
1281108146216,93.9400
1281108206216,93.4731
1281108266216,93.7908
1281108326216,93.9020
1281108386216,94.2903
1281108446216,94.0982
1281108506216,93.6369
1281108566216,93.6054
1281108626216,93.0752
1281108686216,93.8694
1281108746216,93.9199
1281108806216,93.6198
1281108866216,93.9784
1281108926216,93.9170
1281108986216,93.8897
1281109046216,94.1863
1281109106216,94.1127
1281109166216,93.9750
1281109226216,93.8461
1281109286216,94.0376
1281109346216,93.8329
1281109406216,93.8901
1281109466216,93.8383
1281109526216,93.9051
1281109586216,93.7932
1281109646216,94.6433
1281109706216,94.0535
1281109766216,94.1251
1281109826216,94.1882
1281109886216,94.7666
1281109946216,94.7241
1281110006216,94.1823
1281110066216,94.8991
1281110126216,94.4470
1281110186216,94.1563
1281110246216,94.6675
1281110306216,94.8635
1281110366216,94.8110
1281110426225,94.7051
1281110486225,95.0204
1281110546225,94.8402
1281110606225,94.7428
1281110666225,94.6041
1281110726225,95.2689
1281110786225,95.3506
1281110846225,95.5602
1281110906225,95.3866
1281110966225,95.1219
1281111026225,96.0112
1281111086225,95.2428
1281111146225,95.3993
1281111206225,95.7432
1281111266225,95.4592
1281111326225,95.1657
1281111386225,95.9804
1281111446225,95.8213
1281111506225,95.4725
1281111566225,95.3616
1281111626225,95.7716
1281111686225,96.0583
1281111746225,95.7542
1281111806225,95.5601
1281111866225,95.9439
1281111926225,95.9972
1281111986225,96.2209
1281112046225,95.7738
1281112106225,96.4351
1281112166225,96.7728
1281112226225,96.1584
1281112286225,96.2207
1281112346225,96.3765
1281112406225,95.7768
1281112466225,96.1058
1281112526225,95.9707
1281112586225,96.2940
1281112646225,96.2336
1281112706225,96.7111
1281112766225,96.6004
1281112826225,96.7178
1281112886225,96.2906
1281112946225,96.1255
1281113006225,96.8837
1281113066225,96.7881
1281113126225,96.1338
1281113186225,96.3925
1281113246225,96.3214
1281113306225,95.9943
1281113366225,96.5005
1281113426225,96.5183
1281113486225,96.3619
1281113546225,96.2048
1281113606225,96.4643
1281113666225,95.9288
1281113726225,96.0096
1281113786225,96.8195
1281113846225,96.3446
1281113906225,96.2384
1281113966225,96.1357
1281114026235,96.2120
1281114086235,96.2776
1281114146235,95.9402
1281114206235,96.2400
1281114266235,96.3635
1281114326235,96.4374
1281114386235,96.1976
1281114446235,96.3344
1281114506235,96.1697
1281114566235,96.3223
1281114626235,96.1574
1281114686235,96.0222
1281114746235,96.5050
1281114806235,95.8714
1281114866235,96.1266
1281114926235,96.2324
1281114986235,96.1575
1281115046235,96.1312
1281115106235,96.5315
1281115166235,96.4410
1281115226235,95.8958
1281115286235,95.9987
1281115346235,95.7445
1281115406235,96.3435
1281115466235,95.9808
1281115526235,96.5492
1281115586235,96.2147
1281115646235,95.6550
1281115706235,95.8973
1281115766235,96.0121
1281115826235,95.8852
1281115886235,95.9409
1281115946235,96.4268
1281116006235,96.2264
1281116066235,95.7820
1281116126235,95.9157
1281116186235,95.7098
1281116246235,95.8725
1281116306235,96.1721
1281116366235,96.0470
1281116426235,95.7269
1281116486235,96.0975
1281116546235,96.1629
1281116606235,95.6672
1281116666235,96.1415
1281116726235,96.4479
1281116786235,96.0610
1281116846235,95.3808
1281116906235,95.8427
1281116966235,96.0131
1281117026235,96.1750
1281117086235,96.1545
1281117146235,95.8336
1281117206235,95.7270
1281117266235,95.6155
1281117326235,96.2887
1281117386235,96.4494
1281117446235,96.1795
1281117506235,95.7757
1281117566235,96.1699
1281117626255,95.9477
1281117686255,96.7375
1281117746255,95.7617
1281117806255,96.4818
1281117866255,96.3391
1281117926255,96.0888
1281117986255,95.9244
1281118046255,96.2269
1281118106255,96.5492
1281118166255,96.2763